• In Belarus
  • List of Countries
  • For 7 days
  • Water Temperature
  • Satellite Maps
  • Weather Map
  • Weather Widgets
  • user-avatar
    Login

    Hourly Weather Porokhova

    Today, 21 April, Sunday

    Time Temperature Precipitation Wind Pressure Humidity
    00:00 +10°C° 0 mm 1 mps 736 mmHg 90%
    01:00 +9°C° 0 mm 0 mps 736 mmHg 92%
    02:00 +9°C° 0 mm 1 mps 736 mmHg 95%
    03:00 +9°C° 0 mm 1 mps 735 mmHg 97%
    04:00 +9°C° 0 mm 1 mps 735 mmHg 97%
    05:00 +8°C° 0 mm 1 mps 735 mmHg 98%
    06:00 +8°C° 0 mm 1 mps 734 mmHg 100%
    07:00 +9°C° 0 mm 1 mps 735 mmHg 100%
    08:00 +9°C° 0 mm 2 mps 735 mmHg 98%
    09:00 +11°C° 0 mm 4 mps 735 mmHg 95%
    10:00 +10°C° 0 mm 5 mps 735 mmHg 77%
    11:00 +12°C° 0 mm 3 mps 735 mmHg 88%
    12:00 +10°C° 0.9 mm 6 mps 734 mmHg 95%
    13:00 +11°C° 0.1 mm 3 mps 734 mmHg 89%
    14:00 +13°C° 0 mm 3 mps 733 mmHg 84%
    15:00 +13°C° 0 mm 4 mps 733 mmHg 87%
    16:00 +12°C° 0 mm 4 mps 733 mmHg 90%
    17:00 +12°C° 0 mm 3 mps 733 mmHg 88%
    18:00 +10°C° 4 mm 2 mps 732 mmHg 100%
    19:00 +10°C° 0.8 mm 1 mps 732 mmHg 98%
    20:00 +10°C° 1.7 mm 1 mps 732 mmHg 100%
    21:00 +9°C° 1 mm 1 mps 732 mmHg 100%
    22:00 +9°C° 0.8 mm 1 mps 732 mmHg 100%
    23:00 +9°C° 0.1 mm 1 mps 732 mmHg 100%

    Tomorrow, 22 April, Monday

    Time Temperature Precipitation Wind Pressure Humidity
    00:00 +9°C° 0.2 mm 1 mps 732 mmHg 100%
    01:00 +9°C° 0.6 mm 1 mps 732 mmHg 100%
    02:00 +9°C° 0.6 mm 1 mps 733 mmHg 100%
    03:00 +9°C° 1.1 mm 1 mps 733 mmHg 100%
    04:00 +9°C° 0.8 mm 1 mps 732 mmHg 100%
    05:00 +6°C° 1.4 mm 4 mps 733 mmHg 100%
    06:00 +6°C° 0.4 mm 5 mps 733 mmHg 100%
    07:00 +5°C° 0.6 mm 5 mps 734 mmHg 100%
    08:00 +4°C° 0.7 mm 6 mps 734 mmHg 100%
    09:00 +5°C° 0.3 mm 6 mps 735 mmHg 99%
    10:00 +5°C° 0 mm 7 mps 735 mmHg 99%
    11:00 +6°C° 0 mm 8 mps 736 mmHg 98%
    12:00 +7°C° 0 mm 8 mps 736 mmHg 96%
    13:00 +7°C° 0 mm 9 mps 736 mmHg 91%
    14:00 +8°C° 0 mm 9 mps 736 mmHg 86%
    15:00 +10°C° 0 mm 9 mps 736 mmHg 83%
    16:00 +10°C° 0 mm 8 mps 736 mmHg 83%
    17:00 +9°C° 0 mm 8 mps 736 mmHg 83%
    18:00 +9°C° 0 mm 7 mps 736 mmHg 87%
    19:00 +8°C° 0 mm 6 mps 736 mmHg 89%
    20:00 +7°C° 0 mm 6 mps 737 mmHg 93%
    21:00 +7°C° 0 mm 6 mps 737 mmHg 96%
    22:00 +5°C° 0 mm 6 mps 737 mmHg 99%
    23:00 +5°C° 0 mm 6 mps 737 mmHg 98%

    Day after tomorrow, 23 April, Tuesday

    Time Temperature Precipitation Wind Pressure Humidity
    00:00 +4°C° 0 mm 6 mps 738 mmHg 96%
    01:00 +4°C° 0 mm 6 mps 737 mmHg 96%
    02:00 +3°C° 0 mm 6 mps 738 mmHg 96%
    03:00 +3°C° 0 mm 6 mps 738 mmHg 96%
    04:00 +2°C° 0 mm 6 mps 738 mmHg 96%
    05:00 +2°C° 0 mm 6 mps 738 mmHg 95%
    06:00 +2°C° 0 mm 6 mps 738 mmHg 94%
    07:00 +3°C° 0 mm 6 mps 738 mmHg 91%
    08:00 +4°C° 0 mm 7 mps 739 mmHg 90%
    09:00 +6°C° 0 mm 7 mps 739 mmHg 89%
    10:00 +7°C° 0 mm 8 mps 739 mmHg 86%
    11:00 +8°C° 0 mm 9 mps 739 mmHg 83%
    12:00 +10°C° 0 mm 9 mps 739 mmHg 82%
    13:00 +9°C° 0 mm 10 mps 739 mmHg 81%
    14:00 +11°C° 0 mm 10 mps 738 mmHg 80%
    15:00 +11°C° 0 mm 9 mps 738 mmHg 82%
    16:00 +10°C° 0 mm 9 mps 737 mmHg 83%
    17:00 +10°C° 0 mm 9 mps 737 mmHg 83%
    18:00 +10°C° 0 mm 9 mps 737 mmHg 86%
    19:00 +9°C° 0 mm 8 mps 737 mmHg 88%
    20:00 +9°C° 0 mm 8 mps 737 mmHg 91%
    21:00 +9°C° 0 mm 8 mps 737 mmHg 92%
    22:00 +9°C° 0 mm 8 mps 737 mmHg 94%
    23:00 +7°C° 0 mm 8 mps 737 mmHg 95%

    24 April, Wednesday

    Time Temperature Precipitation Wind Pressure Humidity
    00:00 +7°C° 0 mm 8 mps 738 mmHg 98%
    01:00 +6°C° 0 mm 8 mps 737 mmHg 100%
    02:00 +6°C° 0.3 mm 8 mps 737 mmHg 100%
    03:00 +6°C° 0.7 mm 8 mps 737 mmHg 100%
    04:00 +5°C° 0.3 mm 9 mps 737 mmHg 99%
    05:00 +5°C° 0 mm 8 mps 737 mmHg 96%
    06:00 +5°C° 0 mm 8 mps 737 mmHg 97%
    07:00 +5°C° 0 mm 8 mps 737 mmHg 98%
    08:00 +6°C° 0 mm 8 mps 737 mmHg 97%
    09:00 +7°C° 0 mm 8 mps 737 mmHg 97%
    10:00 +10°C° 0 mm 8 mps 738 mmHg 97%
    11:00 +11°C° 0 mm 8 mps 738 mmHg 98%
    12:00 +12°C° 0 mm 8 mps 738 mmHg 97%
    13:00 +12°C° 0 mm 8 mps 738 mmHg 97%
    14:00 +13°C° 0 mm 8 mps 738 mmHg 96%

    25 April, Thursday

    Time Temperature Precipitation Wind Pressure Humidity

    26 April, Friday

    Time Temperature Precipitation Wind Pressure Humidity
    Show more